Hourly Data Report for June 17, 2021

WINNIPEG THE FORKS
MANITOBA
Current Station Operator: ECCC - MSC

49°53'18.008" N
97°07'46.007" W
230.00 m
5023262
71579
XWN

Download Data

Hourly Data (June 2021)
Hourly Data Report for June 17, 2021
TIME
LST
Temp Definition
°C
Dew Point Definition
°C
Rel Hum Definition
%
Precip. Amount Definition
mm

Wind Dir Definition
10's deg

Wind Spd Definition
km/h
Visibility Definition
km
Stn Press Definition
kPa
Hmdx Definition


Wind Chill Definition


Weather Definition


00:00 21.3 7.4 41 0.0 28 5   98.23     LegendNANA
01:00 21.2 6.6 39 0.0 25 8   98.22     LegendNANA
02:00 20.2 7.1 43 0.0 23 8   98.22     LegendNANA
03:00 19.5 6.8 44 0.0 26 7   98.21     LegendNANA
04:00 18.5 6.9 47 0.0 25 6   98.22     LegendNANA
05:00 17.2 7.6 53 0.0 22 7   98.23     LegendNANA
06:00 17.9 7.7 51 0.0 25 7   98.22     LegendNANA
07:00 19.6 8.2 48 0.0 22 7   98.20     LegendNANA
08:00 21.9 7.9 41 0.0 23 6   98.15     LegendNANA
09:00 24.1 7.9 36 0.0 24 7   98.11     LegendNANA
10:00 25.9 6.1 28 0.0 26 9   98.04 26   LegendNANA
11:00 26.7 8.3 31 0.0 23 10   97.97 27   LegendNANA
12:00 28.2 5.8 24 0.0 24 10   97.92 28   LegendNANA
13:00 28.9 0.6 16 0.0 26 10   97.83 27   LegendNANA
14:00 29.2 2.1 17 0.0 25 15   97.77 28   LegendNANA
15:00 28.8 3.3 19 0.0 24 12   97.74 28   LegendNANA
16:00 29.5 -0.8 14 0.0 26 11   97.74 27   LegendNANA
17:00 28.6 -0.4 15 0.0 26 13   97.72 26   LegendNANA
18:00 28.4 0.9 17 0.0 27 12   97.70 26   LegendNANA
19:00 27.1 0.4 18 0.0 28 12   97.74 25   LegendNANA
20:00 24.8 4.3 27 0.0 31 8   97.79     LegendNANA
21:00 23.2 6.3 34 0.0 28 4   97.87     LegendNANA
22:00 21.6 5.5 35 0.0 28 4   97.91     LegendNANA
23:00 21.2 4.6 34 0.0 28 5   97.90     LegendNANA

Notes on Data Quality.

Legend

  • E = Estimated
  • M = Missing
  • NA = Not Available*
  • [empty] = Indicates an unobserved value
Date modified: